sat.trackr.live / text

‹ back to catalog

CAS500-2 RIDESHARE OBJE*

NORAD 68996 · 2026-100S

PAYLOAD ACTIVE UNKNOWN

§ Identity

Operator
Country
TBD
Launch date
2026-05-03
Launch site
AFWTR
Launch vehicle
Mass (kg)
RCS (m²)

External: N2YO · Heavens-Above · Gunter

§ Orbital elements

Epoch: 2026-05-25T03:23:34.052640Z

Period
96.57 min
Inclination
97.7385°
Eccentricity
0.0003133
Mean motion
14.91175587 rev/d
Perigee alt
592.1 km
Apogee alt
596.5 km
Semi-major
6,972.4 km
B*
2.0668e-4
RAAN
43.0076°
Arg perigee
204.8684°
Mean anomaly
155.2383°
Rev number
326

§ Raw data

CAS500-2 RIDESHARE OBJE*1 68996U 26100S   26145.14136635  .00001997  00000+0  20668-3 0  99942 68996  97.7385  43.0076 0003133 204.8684 155.2383 14.91175587  3267

JSON: /api/v1/satellites/68996 · /tle

For live sub-satellite position, see the globe view (requires WebGL).

§ Visibility from observer

Set your observer location to see the next 7 days of passes ≥ 10°. The values pass through the URL so the page stays shareable.

No JS? Fill the form by hand. The geolocation button needs JavaScript.